This is the latest recevied weather packets stored in our database for station/object DB0RV-13. If no packets are shown the sender has not sent any weather packets the latest 10 day(s).
| Time | Temp. | Humidity | Pressure | Rain* | Wind** | Luminosity | Snow |
|---|---|---|---|---|---|---|---|
| 1777972802 | 12.78° C | 78% | 1008.4 hPa | - | - | - | - |
| 1777972502 | 12.78° C | 79% | 1008.3 hPa | - | - | - | - |
| 1777972201 | 12.78° C | 79% | 1008.3 hPa | - | - | - | - |
| 1777971902 | 12.78° C | 78% | 1008.3 hPa | - | - | - | - |
| 1777971601 | 12.78° C | 79% | 1008.4 hPa | - | - | - | - |
| 1777971302 | 12.78° C | 80% | 1008.3 hPa | - | - | - | - |
| 1777971001 | 12.22° C | 79% | 1008.4 hPa | - | - | - | - |
| 1777970702 | 12.78° C | 80% | 1008.4 hPa | - | - | - | - |
| 1777970401 | 12.22° C | 79% | 1008.4 hPa | - | - | - | - |
| 1777970102 | 12.78° C | 79% | 1008.5 hPa | - | - | - | - |
| 1777969802 | 12.78° C | 80% | 1008.4 hPa | - | - | - | - |
| 1777969501 | 12.78° C | 79% | 1008.4 hPa | - | - | - | - |
| 1777969202 | 12.78° C | 81% | 1008.5 hPa | - | - | - | - |
| 1777968902 | 12.22° C | 82% | 1008.4 hPa | - | - | - | - |
| 1777968602 | 11.67° C | 82% | 1008.5 hPa | - | - | - | - |
| 1777968301 | 11.67° C | 82% | 1008.6 hPa | - | - | - | - |
| 1777968002 | 11.67° C | 84% | 1008.6 hPa | - | - | - | - |
| 1777967701 | 11.67° C | 83% | 1008.6 hPa | - | - | - | - |
| 1777967402 | 11.67° C | 84% | 1008.8 hPa | - | - | - | - |
| 1777967101 | 11.67° C | 84% | 1008.7 hPa | - | - | - | - |
| 1777966801 | 11.67° C | 85% | 1008.8 hPa | - | - | - | - |
| 1777966502 | 11.67° C | 85% | 1008.8 hPa | - | - | - | - |
| 1777966202 | 11.67° C | 84% | 1008.8 hPa | - | - | - | - |
| 1777965902 | 11.11° C | 84% | 1008.9 hPa | - | - | - | - |
| 1777965601 | 11.67° C | 85% | 1008.8 hPa | - | - | - | - |
* Rain since midnight (hover to see other rain measurements)
** Current wind speed in m/s (hover to see current wind gust speed)